Flag for U.S.A. Weather past 2 weeks in Myrtle Beach, South Carolina, U.S.A.

Now
54 °F

Clear.


Feels Like: 54 °F
Forecast: 53 / 72 °F
Wind: No wind

Location: Myrtle Beach Air Force Base

Current Time: Oct 25, 2014 at 3:13:23 AM

Latest Report: Oct 25, 2014 at 2:35 AM


Visibility: 10 mi

Pressure: 29.99 "Hg

Humidity: 82%

Dew point: 48 °F

Location of Myrtle BeachLocation

Historic Weather in Myrtle Beach — Graph

°F

Myrtle Beach temperature yesterday

Maximum temperature yesterday: 70 °F (at 2:45 PM)
Minimum temperature yesterday: 50 °F (at 7:47 AM)
Average temperature yesterday: 56 °F

Past Weeks' High & Low Weather Summary

 TemperatureHumidityPressure
High88 °F (Oct 11, 12:45 PM)94% (Oct 13, 3:55 AM)30.22 "Hg (Oct 13, 3:55 AM)
Low46 °F (Oct 23, 7:47 AM)38% (Oct 19, 2:45 PM)29.76 "Hg (Oct 18, 2:45 PM)
Average66 °F73%29.99 "Hg
* Reported Oct 10 1:15 AM — Oct 25 1:55 AM, Myrtle Beach, Weather by CustomWeather, © 2014

Note: Actual official high and low records may vary slightly from our data, if they occured in-between our weather recording intervals... More about our weather records

Advertising

Myrtle Beach weather history for previous 24 hours

 ConditionsComfort  
Time TempWeatherWind HumidityBarometerVisibility
1:55 AM
Oct 25
55 °FClear.No wind77%30.00 "Hg10 mi
1:35 AM55 °FClear.6 mph82%30.00 "Hg10 mi
1:15 AM57 °FClear.No wind77%30.00 "Hg10 mi
12:55 AM57 °FClear.3 mph72%30.00 "Hg10 mi
12:35 AM57 °FClear.5 mph82%29.99 "Hg10 mi
12:15 AM55 °FClear.No wind82%30.00 "Hg10 mi
11:55 PM
Oct 24
55 °FClear.6 mph82%29.99 "Hg10 mi
11:35 PM55 °FClear.No wind77%30.00 "Hg10 mi
11:15 PM54 °FClear.No wind88%30.00 "Hg10 mi
10:55 PM55 °FClear.3 mph77%30.00 "Hg10 mi
10:35 PM55 °FClear.No wind88%30.00 "Hg10 mi
9:45 PM57 °FClear.No wind82%29.99 "Hg10 mi
8:45 PM57 °FClear.No wind82%29.99 "Hg10 mi
6:45 PM64 °FPassing clouds.No wind60%29.98 "Hg10 mi
5:45 PM66 °FPassing clouds.9 mph56%29.97 "Hg10 mi
4:45 PM68 °FSunny.10 mph49%29.98 "Hg10 mi
3:45 PM70 °FSunny.9 mph46%29.98 "Hg10 mi
2:45 PM70 °FScattered clouds.6 mph46%29.99 "Hg10 mi
1:45 PM68 °FScattered clouds.8 mph46%30.02 "Hg10 mi
12:45 PM66 °FPartly sunny.8 mph49%30.05 "Hg10 mi
11:45 AM63 °FPartly sunny.7 mph52%30.06 "Hg10 mi
10:50 AM61 °FPartly sunny.9 mph55%30.07 "Hg10 mi
9:50 AM55 °FPartly sunny.12 mph67%30.06 "Hg10 mi
8:45 AM54 °FSunny.12 mph72%30.05 "Hg10 mi
7:47 AM50 °FPassing clouds.9 mph76%30.03 "Hg10 mi
6:47 AM52 °FClear.9 mph72%30.02 "Hg10 mi
5:56 AM52 °FClear.6 mph72%30.02 "Hg10 mi
5:35 AM52 °FClear.8 mph72%30.01 "Hg10 mi
5:15 AM52 °FClear.7 mph72%30.01 "Hg10 mi
4:55 AM52 °FClear.6 mph77%30.00 "Hg10 mi
4:35 AM52 °FClear.6 mph77%30.00 "Hg10 mi
4:15 AM52 °FClear.3 mph72%30.00 "Hg10 mi
3:55 AM52 °FClear.6 mph77%30.01 "Hg10 mi
3:35 AM52 °FClear.7 mph72%30.00 "Hg10 mi
3:15 AM52 °FClear.5 mph77%30.01 "Hg10 mi
Weather by CustomWeather, © 2014

See weather overviewHow to use our weather pages